Location: Brantley
(31.5822°N, 86.2569°W)
Time: 13:14:10
(UTC+00:00)

Courier 1B - Pass Details

Date: 19 February 2026
Orbit: 962 x 1208 km, 28.3° (Epoch: 11 March)

Event Time Altitude Azimuth Distance (km) Brightness Sun altitude
Rises 03:55:39 0° 270° (W) 3,986 11.1 -55.1°
Enters shadow 03:57:43 - 269° (W) 3,292 10.6 -55.5°
Reaches altitude 10° 03:58:26 10° 268° (W) 3,055 - -55.6°
Maximum altitude 04:05:58 66° 188° (S) 1,288 - -57.0°
Drops below altitude 10° 04:13:45 10° 108° (ESE) 3,140 - -58.4°
Sets 04:16:38 0° 105° (ESE) 4,102 - -58.9°
